Home > Time Zones > World Clock > Weather > India > Siwan > Past weeks

Flag for India Weather past 2 weeks in Siwan, Bihar, India

Now
91 °F

Scattered clouds.


Feels Like: 105 °F
Forecast: 78 / 90 °F
Wind: 9 mph from East

Location: Lucknow / Amausi

Current Time: Jul 23, 2014 at 4:15:58 PM

Latest Report: Jul 23, 2014 at 3:30 PM


Visibility: 3 mi

Pressure: 29.42 "Hg

Humidity: 63%

Dew point: 77 °F

Location of SiwanLocation

Historic Weather in Siwan — Graph

°F

Siwan temperature yesterday

Maximum temperature yesterday: 91 °F (at 2:30 PM)
Minimum temperature yesterday: 81 °F (at 12:00 AM)
Average temperature yesterday: 87 °F

Past Weeks' High & Low Weather Summary

 TemperatureHumidityPressure
High104 °F (Jul 9, 1:30 PM)100% (Jul 13, 4:30 PM)29.53 "Hg (Jul 13, 4:30 PM)
Low77 °F (Jul 18, 11:30 AM)51% (Jul 9, 1:30 PM)28.29 "Hg (Jul 14, 5:30 PM)
Average88 °F82%29.44 "Hg
* Reported Jul 8 2:30 PM — Jul 23 3:00 PM, Siwan, Weather by CustomWeather, © 2014

Note: Actual official high and low records may vary slightly from our data, if they occured in-between our weather recording intervals... More about our weather records

Advertising

Siwan weather history for previous 24 hours

 ConditionsComfort  
Time TempWeatherWind HumidityBarometerVisibility
3:00 PM
Jul 23
91 °FBroken clouds.9 mph63%29.45 "Hg3 mi
2:30 PM91 °FBroken clouds.14 mph63%29.45 "Hg3 mi
2:00 PM91 °FBroken clouds.14 mph63%29.45 "Hg3 mi
1:30 PM90 °FBroken clouds.14 mph67%29.47 "Hg3 mi
11:00 AM88 °FBroken clouds.16 mph75%29.47 "Hg3 mi
10:00 AM88 °FBroken clouds.16 mph75%29.50 "Hg2 mi
9:30 AM88 °FBroken clouds.14 mph75%29.50 "Hg2 mi
9:00 AM88 °FBroken clouds.12 mph75%29.47 "Hg2 mi
8:30 AM84 °FBroken clouds.14 mph84%29.47 "Hg2 mi
8:00 AM82 °FBroken clouds.14 mph89%29.47 "Hg2 mi
7:30 AM82 °FRain. Broken clouds.14 mph89%29.47 "Hg2 mi
7:00 AM82 °FBroken clouds.12 mph89%29.45 "Hg2 mi
6:30 AM82 °FBroken clouds.12 mph89%29.45 "Hg2 mi
6:00 AM82 °FBroken clouds.12 mph89%29.42 "Hg2 mi
5:00 AM84 °FPartly cloudy.12 mph84%29.42 "Hg2 mi
10:00 PM
Jul 22
86 °FPassing clouds.2 mph84%29.45 "Hg2 mi
8:30 PM86 °FPassing clouds.2 mph79%29.42 "Hg3 mi
8:00 PM88 °FPassing clouds.2 mph75%29.42 "Hg3 mi
7:30 PM88 °FPassing clouds.7 mph75%29.42 "Hg3 mi
7:00 PM88 °FScattered clouds.8 mph75%29.39 "Hg3 mi
6:30 PM90 °FScattered clouds.8 mph71%29.39 "Hg3 mi
6:00 PM90 °FScattered clouds.9 mph71%29.39 "Hg3 mi
5:30 PM90 °FScattered clouds.9 mph71%29.36 "Hg3 mi
5:00 PM91 °FScattered clouds.7 mph71%29.36 "Hg3 mi
Weather by CustomWeather, © 2014

See weather overviewHow to use our weather pages